Time,TemperatureF,DewpointF,PressureIn,WindDirection,WindDirectionDegrees,WindSpeedMPH,WindSpeedGustMPH,Humidity,HourlyPrecipIn,Conditions,Clouds,dailyrainin,SoftwareType,DateUTC
2013-10-21 00:05:00,54.7,54.1,30.00,SE,146,0.0,9.0,98,0.00,,,0.00,Wunderground v.1.15,2013-10-21 05:05:00,
2013-10-21 00:15:00,54.5,53.9,30.00,SE,146,0.0,9.0,98,0.00,,,0.00,Wunderground v.1.15,2013-10-21 05:15:00,
2013-10-21 00:20:00,54.4,53.8,30.00,SE,146,0.0,9.0,98,0.00,,,0.00,Wunderground v.1.15,2013-10-21 05:20:00,
2013-10-21 00:25:00,54.5,53.9,30.00,SE,146,0.0,9.0,98,0.00,,,0.00,Wunderground v.1.15,2013-10-21 05:25:00,
2013-10-21 00:30:00,54.7,54.4,30.00,SE,146,0.0,9.0,99,0.00,,,0.00,Wunderground v.1.15,2013-10-21 05:30:00,
2013-10-21 00:35:00,54.8,54.5,30.01,SE,146,0.0,9.0,99,0.00,,,0.00,Wunderground v.1.15,2013-10-21 05:35:00,
2013-10-21 00:40:00,54.6,54.3,30.01,SE,146,0.0,9.0,99,0.00,,,0.00,Wunderground v.1.15,2013-10-21 05:40:00,
2013-10-21 00:45:00,54.8,54.5,30.01,SE,146,0.0,9.0,99,0.00,,,0.00,Wunderground v.1.15,2013-10-21 05:45:00,
2013-10-21 00:50:00,54.8,54.5,30.01,SE,146,0.0,9.0,99,0.00,,,0.00,Wunderground v.1.15,2013-10-21 05:50:00,
2013-10-21 00:55:00,54.7,54.4,30.01,SE,146,0.0,9.0,99,0.00,,,0.00,Wunderground v.1.15,2013-10-21 05:55:00,
2013-10-21 01:00:00,54.6,54.0,30.01,SE,146,0.0,9.0,98,0.00,,,0.00,Wunderground v.1.15,2013-10-21 06:00:00,
2013-10-21 01:10:00,54.8,54.5,30.01,SE,146,0.0,9.0,99,0.00,,,0.00,Wunderground v.1.15,2013-10-21 06:10:00,
2013-10-21 01:15:00,54.6,54.0,30.00,SE,146,0.0,9.0,98,0.00,,,0.00,Wunderground v.1.15,2013-10-21 06:15:00,
2013-10-21 01:20:00,54.6,54.3,30.01,SE,146,0.0,9.0,99,0.00,,,0.00,Wunderground v.1.15,2013-10-21 06:20:00,
2013-10-21 01:25:00,54.7,54.4,30.01,SE,146,0.0,9.0,99,0.00,,,0.00,Wunderground v.1.15,2013-10-21 06:25:00,
2013-10-21 01:30:00,54.7,54.4,30.01,SE,146,0.0,9.0,99,0.00,,,0.00,Wunderground v.1.15,2013-10-21 06:30:00,
2013-10-21 01:35:00,54.6,54.3,30.00,SE,146,0.0,9.0,99,0.00,,,0.00,Wunderground v.1.15,2013-10-21 06:35:00,
2013-10-21 01:45:00,54.4,53.8,30.01,SE,146,0.0,9.0,98,0.00,,,0.00,Wunderground v.1.15,2013-10-21 06:45:00,
2013-10-21 01:50:00,54.3,54.0,30.00,SE,146,0.0,9.0,99,0.00,,,0.00,Wunderground v.1.15,2013-10-21 06:50:00,
2013-10-21 01:55:00,54.3,54.0,30.00,SE,146,0.0,9.0,99,0.00,,,0.00,Wunderground v.1.15,2013-10-21 06:55:00,
2013-10-21 02:00:00,54.2,53.6,30.01,SE,146,0.0,9.0,98,0.00,,,0.00,Wunderground v.1.15,2013-10-21 07:00:00,
2013-10-21 02:05:00,54.2,53.9,30.00,SE,146,0.0,9.0,99,0.00,,,0.00,Wunderground v.1.15,2013-10-21 07:05:00,
2013-10-21 02:10:00,54.5,54.2,30.00,SE,146,0.0,9.0,99,0.00,,,0.00,Wunderground v.1.15,2013-10-21 07:10:00,
2013-10-21 02:15:00,54.8,54.5,30.00,SE,146,0.0,9.0,99,0.00,,,0.00,Wunderground v.1.15,2013-10-21 07:15:00,
2013-10-21 02:24:00,55.4,55.1,30.00,SE,136,0.0,9.0,99,0.00,,,0.00,Wunderground v.1.15,2013-10-21 07:24:00,
2013-10-21 02:29:00,55.5,55.2,30.00,SE,136,0.0,9.0,99,0.00,,,0.00,Wunderground v.1.15,2013-10-21 07:29:00,
2013-10-21 02:34:00,55.5,55.2,30.00,SE,136,0.0,9.0,99,0.00,,,0.00,Wunderground v.1.15,2013-10-21 07:34:00,
2013-10-21 02:39:00,55.8,55.5,30.00,ESE,116,0.0,9.0,99,0.00,,,0.00,Wunderground v.1.15,2013-10-21 07:39:00,
2013-10-21 02:45:00,55.6,55.3,30.00,SE,131,0.0,9.0,99,0.00,,,0.00,Wunderground v.1.15,2013-10-21 07:45:00,
2013-10-21 02:50:00,55.6,55.3,30.00,SE,131,0.0,9.0,99,0.00,,,0.00,Wunderground v.1.15,2013-10-21 07:50:00,
2013-10-21 02:55:00,55.7,55.4,30.00,SE,131,0.0,9.0,99,0.00,,,0.00,Wunderground v.1.15,2013-10-21 07:55:00,
2013-10-21 03:00:00,55.7,55.4,30.00,SE,131,0.0,9.0,99,0.00,,,0.00,Wunderground v.1.15,2013-10-21 08:00:00,
2013-10-21 03:05:00,55.7,55.4,30.00,SE,131,0.0,9.0,99,0.00,,,0.00,Wunderground v.1.15,2013-10-21 08:05:00,
2013-10-21 03:10:00,55.8,55.5,30.00,SE,131,0.0,9.0,99,0.00,,,0.00,Wunderground v.1.15,2013-10-21 08:10:00,
2013-10-21 03:20:00,56.0,55.7,30.00,SE,131,0.0,9.0,99,0.00,,,0.00,Wunderground v.1.15,2013-10-21 08:20:00,
2013-10-21 03:25:00,55.9,55.3,30.00,SE,131,0.0,9.0,98,0.00,,,0.00,Wunderground v.1.15,2013-10-21 08:25:00,
2013-10-21 03:30:00,55.7,55.1,30.00,SE,131,0.0,9.0,98,0.00,,,0.00,Wunderground v.1.15,2013-10-21 08:30:00,
2013-10-21 03:35:00,55.5,54.9,30.00,SE,131,0.0,9.0,98,0.00,,,0.00,Wunderground v.1.15,2013-10-21 08:35:00,
2013-10-21 03:40:00,55.5,54.9,30.00,SE,131,0.0,9.0,98,0.00,,,0.00,Wunderground v.1.15,2013-10-21 08:40:00,
2013-10-21 03:50:00,55.7,55.1,30.00,SE,131,0.0,9.0,98,0.00,,,0.00,Wunderground v.1.15,2013-10-21 08:50:00,
2013-10-21 03:55:00,55.8,55.2,30.00,SE,131,0.0,9.0,98,0.00,,,0.00,Wunderground v.1.15,2013-10-21 08:55:00,
2013-10-21 04:00:00,55.9,55.6,30.00,SE,131,0.0,9.0,99,0.00,,,0.00,Wunderground v.1.15,2013-10-21 09:00:00,
2013-10-21 04:05:00,55.9,55.3,30.00,SE,131,0.0,9.0,98,0.00,,,0.00,Wunderground v.1.15,2013-10-21 09:05:00,
2013-10-21 04:10:00,55.9,55.3,30.00,SE,131,0.0,9.0,98,0.00,,,0.00,Wunderground v.1.15,2013-10-21 09:10:00,
2013-10-21 04:15:00,56.0,55.7,30.00,SE,131,0.0,9.0,99,0.00,,,0.00,Wunderground v.1.15,2013-10-21 09:15:00,
2013-10-21 04:25:00,55.7,55.1,30.00,SE,131,0.0,9.0,98,0.00,,,0.00,Wunderground v.1.15,2013-10-21 09:25:00,
2013-10-21 04:30:00,55.6,55.0,30.00,SE,131,0.0,9.0,98,0.00,,,0.00,Wunderground v.1.15,2013-10-21 09:30:00,
2013-10-21 04:35:00,55.3,54.7,30.00,SE,131,0.0,9.0,98,0.00,,,0.00,Wunderground v.1.15,2013-10-21 09:35:00,
2013-10-21 04:40:00,55.1,54.5,30.00,SE,131,0.0,9.0,98,0.00,,,0.00,Wunderground v.1.15,2013-10-21 09:40:00,
2013-10-21 04:45:00,55.0,54.4,30.00,East,95,0.0,9.0,98,0.00,,,0.00,Wunderground v.1.15,2013-10-21 09:45:00,
2013-10-21 04:55:00,55.2,54.9,30.00,East,90,0.0,9.0,99,0.00,,,0.00,Wunderground v.1.15,2013-10-21 09:55:00,
2013-10-21 05:00:00,55.3,55.0,30.00,East,90,0.0,9.0,99,0.00,,,0.00,Wunderground v.1.15,2013-10-21 10:00:00,
2013-10-21 05:05:00,55.2,54.6,30.00,East,90,0.0,9.0,98,0.00,,,0.00,Wunderground v.1.15,2013-10-21 10:05:00,
2013-10-21 05:10:00,55.1,54.5,30.00,East,90,0.0,9.0,98,0.00,,,0.00,Wunderground v.1.15,2013-10-21 10:10:00,
2013-10-21 05:15:00,54.8,54.2,30.00,East,90,0.0,9.0,98,0.00,,,0.00,Wunderground v.1.15,2013-10-21 10:15:00,
2013-10-21 05:20:00,54.5,53.9,30.00,East,99,0.0,9.0,98,0.00,,,0.00,Wunderground v.1.15,2013-10-21 10:20:00,
2013-10-21 05:29:00,54.0,53.4,30.01,East,99,0.0,9.0,98,0.00,,,0.00,Wunderground v.1.15,2013-10-21 10:29:00,
2013-10-21 05:34:00,53.9,53.6,30.01,East,99,0.0,9.0,99,0.00,,,0.00,Wunderground v.1.15,2013-10-21 10:34:00,
2013-10-21 05:40:00,54.3,54.0,30.01,East,99,0.0,9.0,99,0.00,,,0.00,Wunderground v.1.15,2013-10-21 10:40:00,
2013-10-21 05:45:00,54.4,54.1,30.01,East,99,0.0,9.0,99,0.00,,,0.00,Wunderground v.1.15,2013-10-21 10:45:00,
2013-10-21 05:50:00,54.7,54.4,30.01,East,99,0.0,9.0,99,0.00,,,0.00,Wunderground v.1.15,2013-10-21 10:50:00,
2013-10-21 05:55:00,54.6,54.3,30.01,SE,128,0.0,9.0,99,0.00,,,0.00,Wunderground v.1.15,2013-10-21 10:55:00,
2013-10-21 06:00:00,54.2,53.6,30.01,SE,127,1.0,1.0,98,0.00,,,0.00,Wunderground v.1.15,2013-10-21 11:00:00,
2013-10-21 06:05:00,54.1,53.8,30.00,SE,127,0.0,9.0,99,0.00,,,0.00,Wunderground v.1.15,2013-10-21 11:05:00,
2013-10-21 06:10:00,54.2,53.9,30.00,SE,146,0.0,9.0,99,0.00,,,0.00,Wunderground v.1.15,2013-10-21 11:10:00,
2013-10-21 06:15:00,54.4,54.1,30.00,SE,146,0.0,9.0,99,0.00,,,0.01,Wunderground v.1.15,2013-10-21 11:15:00,
2013-10-21 06:20:00,54.4,54.1,30.00,SE,146,0.0,9.0,99,0.00,,,0.01,Wunderground v.1.15,2013-10-21 11:20:00,
2013-10-21 06:30:00,54.1,53.8,30.00,SE,146,0.0,9.0,99,0.00,,,0.01,Wunderground v.1.15,2013-10-21 11:30:00,
2013-10-21 06:35:00,54.4,54.1,30.00,SE,146,0.0,9.0,99,0.00,,,0.01,Wunderground v.1.15,2013-10-21 11:35:00,
2013-10-21 06:40:00,54.5,54.2,30.00,SE,146,0.0,9.0,99,0.00,,,0.01,Wunderground v.1.15,2013-10-21 11:40:00,
2013-10-21 06:45:00,54.5,54.2,30.00,SE,146,0.0,9.0,99,0.00,,,0.01,Wunderground v.1.15,2013-10-21 11:45:00,
2013-10-21 06:50:00,54.6,54.3,30.00,SE,146,0.0,9.0,99,0.00,,,0.01,Wunderground v.1.15,2013-10-21 11:50:00,
2013-10-21 06:55:00,54.5,54.2,30.00,SE,146,0.0,9.0,99,0.00,,,0.01,Wunderground v.1.15,2013-10-21 11:55:00,
2013-10-21 07:05:00,54.7,54.4,30.00,SE,146,0.0,9.0,99,0.00,,,0.01,Wunderground v.1.15,2013-10-21 12:05:00,
2013-10-21 07:10:00,54.3,53.7,30.00,SE,130,0.0,9.0,98,0.00,,,0.01,Wunderground v.1.15,2013-10-21 12:10:00,
2013-10-21 07:15:00,53.9,53.3,30.00,SE,124,1.0,9.0,98,0.00,,,0.01,Wunderground v.1.15,2013-10-21 12:15:00,
2013-10-21 07:20:00,53.7,53.4,30.00,SE,124,0.0,9.0,99,0.00,,,0.01,Wunderground v.1.15,2013-10-21 12:20:00,
2013-10-21 07:25:00,53.8,53.5,30.01,SE,124,0.0,9.0,99,0.00,,,0.01,Wunderground v.1.15,2013-10-21 12:25:00,
2013-10-21 07:35:00,54.8,54.8,30.01,SE,124,0.0,9.0,100,0.00,,,0.01,Wunderground v.1.15,2013-10-21 12:35:00,
2013-10-21 07:40:00,55.4,55.4,30.01,SE,124,0.0,9.0,100,0.00,,,0.01,Wunderground v.1.15,2013-10-21 12:40:00,
2013-10-21 07:45:00,55.7,55.4,30.01,SE,124,0.0,9.0,99,0.00,,,0.01,Wunderground v.1.15,2013-10-21 12:45:00,
2013-10-21 07:50:00,55.8,55.5,30.01,ESE,123,0.0,9.0,99,0.00,,,0.01,Wunderground v.1.15,2013-10-21 12:50:00,
2013-10-21 07:55:00,55.9,55.6,30.01,ESE,123,0.0,9.0,99,0.00,,,0.01,Wunderground v.1.15,2013-10-21 12:55:00,
2013-10-21 08:00:00,56.1,55.8,30.02,ESE,123,0.0,9.0,99,0.00,,,0.01,Wunderground v.1.15,2013-10-21 13:00:00,
2013-10-21 08:10:00,56.5,56.2,30.02,ESE,123,0.0,9.0,99,0.00,,,0.01,Wunderground v.1.15,2013-10-21 13:10:00,
2013-10-21 08:15:00,56.7,56.4,30.02,ESE,123,0.0,9.0,99,0.00,,,0.01,Wunderground v.1.15,2013-10-21 13:15:00,
2013-10-21 08:20:00,57.0,56.7,30.02,ESE,122,0.0,9.0,99,0.00,,,0.01,Wunderground v.1.15,2013-10-21 13:20:00,
2013-10-21 08:25:00,57.1,56.8,30.02,ESE,122,0.0,9.0,99,0.00,,,0.01,Wunderground v.1.15,2013-10-21 13:25:00,
2013-10-21 08:30:00,57.2,56.9,30.02,ESE,109,1.0,1.0,99,0.00,,,0.01,Wunderground v.1.15,2013-10-21 13:30:00,
2013-10-21 08:40:00,57.6,57.3,30.02,East,95,0.0,9.0,99,0.00,,,0.01,Wunderground v.1.15,2013-10-21 13:40:00,
2013-10-21 08:45:00,57.8,57.2,30.02,East,86,1.0,9.0,98,0.00,,,0.01,Wunderground v.1.15,2013-10-21 13:45:00,
2013-10-21 08:50:00,57.9,57.3,30.02,ENE,75,2.0,9.0,98,0.00,,,0.01,Wunderground v.1.15,2013-10-21 13:50:00,
2013-10-21 08:55:00,58.1,57.5,30.02,East,80,1.0,9.0,98,0.00,,,0.01,Wunderground v.1.15,2013-10-21 13:55:00,
2013-10-21 09:00:00,58.3,57.7,30.02,East,97,1.0,9.0,98,0.00,,,0.01,Wunderground v.1.15,2013-10-21 14:00:00,
2013-10-21 09:05:00,58.6,58.0,30.02,East,101,1.0,9.0,98,0.00,,,0.01,Wunderground v.1.15,2013-10-21 14:05:00,
2013-10-21 09:15:00,59.1,58.2,30.02,NE,51,2.0,9.0,97,0.00,,,0.01,Wunderground v.1.15,2013-10-21 14:15:00,
2013-10-21 09:20:00,59.6,58.7,30.03,ENE,59,2.0,2.0,97,0.00,,,0.01,Wunderground v.1.15,2013-10-21 14:20:00,
2013-10-21 09:25:00,60.2,59.3,30.04,ENE,77,1.0,9.0,97,0.00,,,0.01,Wunderground v.1.15,2013-10-21 14:25:00,
2013-10-21 09:30:00,60.6,59.5,30.04,East,89,1.0,9.0,96,0.00,,,0.01,Wunderground v.1.15,2013-10-21 14:30:00,
2013-10-21 09:35:00,60.9,59.5,30.05,ENE,63,2.0,9.0,95,0.00,,,0.01,Wunderground v.1.15,2013-10-21 14:35:00,
2013-10-21 09:44:00,61.6,60.2,30.05,ESE,108,2.0,9.0,95,0.00,,,0.01,Wunderground v.1.15,2013-10-21 14:44:00,
2013-10-21 09:49:00,62.0,60.3,30.05,ESE,119,2.0,9.0,94,0.00,,,0.01,Wunderground v.1.15,2013-10-21 14:49:00,
2013-10-21 09:55:00,62.2,60.2,30.05,East,89,2.0,9.0,93,0.00,,,0.01,Wunderground v.1.15,2013-10-21 14:55:00,
2013-10-21 10:00:00,62.5,60.4,30.05,ESE,117,2.0,2.0,93,0.00,,,0.01,Wunderground v.1.15,2013-10-21 15:00:00,
2013-10-21 10:05:00,62.9,60.5,30.05,East,94,2.0,9.0,92,0.00,,,0.01,Wunderground v.1.15,2013-10-21 15:05:00,
2013-10-21 10:10:00,63.1,60.7,30.05,SE,128,2.0,9.0,92,0.00,,,0.01,Wunderground v.1.15,2013-10-21 15:10:00,
2013-10-21 10:15:00,63.4,61.0,30.06,ESE,118,2.0,9.0,92,0.00,,,0.01,Wunderground v.1.15,2013-10-21 15:15:00,
2013-10-21 10:20:00,63.5,60.8,30.05,ENE,75,2.0,9.0,91,0.00,,,0.01,Wunderground v.1.15,2013-10-21 15:20:00,
2013-10-21 10:25:00,63.8,61.1,30.05,ESE,105,2.0,9.0,91,0.00,,,0.01,Wunderground v.1.15,2013-10-21 15:25:00,
2013-10-21 10:30:00,63.9,61.2,30.06,East,89,2.0,9.0,91,0.00,,,0.01,Wunderground v.1.15,2013-10-21 15:30:00,
2013-10-21 10:35:00,64.2,61.8,30.05,ESE,110,2.0,9.0,92,0.00,,,0.01,Wunderground v.1.15,2013-10-21 15:35:00,
2013-10-21 10:45:00,64.6,61.6,30.05,East,94,2.0,9.0,90,0.00,,,0.01,Wunderground v.1.15,2013-10-21 15:45:00,
2013-10-21 10:50:00,64.9,62.2,30.05,ESE,110,2.0,9.0,91,0.00,,,0.01,Wunderground v.1.15,2013-10-21 15:50:00,
2013-10-21 10:55:00,65.1,62.1,30.05,ENE,72,2.0,9.0,90,0.00,,,0.01,Wunderground v.1.15,2013-10-21 15:55:00,
2013-10-21 11:00:00,65.4,62.1,30.05,East,86,1.0,1.0,89,0.00,,,0.01,Wunderground v.1.15,2013-10-21 16:00:00,
2013-10-21 11:05:00,65.5,61.9,30.06,ESE,122,1.0,3.0,88,0.00,,,0.01,Wunderground v.1.15,2013-10-21 16:05:00,
2013-10-21 11:10:00,65.5,61.9,30.06,ESE,105,1.0,9.0,88,0.00,,,0.01,Wunderground v.1.15,2013-10-21 16:10:00,
2013-10-21 11:20:00,65.7,62.0,30.06,ESE,105,1.0,9.0,88,0.00,,,0.01,Wunderground v.1.15,2013-10-21 16:20:00,
2013-10-21 11:25:00,65.8,62.5,30.06,ESE,119,1.0,9.0,89,0.00,,,0.01,Wunderground v.1.15,2013-10-21 16:25:00,
2013-10-21 11:30:00,66.1,62.8,30.06,SE,135,1.0,9.0,89,0.00,,,0.01,Wunderground v.1.15,2013-10-21 16:30:00,
2013-10-21 11:35:00,66.2,62.9,30.06,SE,140,1.0,9.0,89,0.00,,,0.01,Wunderground v.1.15,2013-10-21 16:35:00,
2013-10-21 11:50:00,67.0,63.6,30.07,SSE,152,4.0,9.0,89,0.00,,,0.01,Wunderground v.1.15,2013-10-21 16:50:00,
2013-10-21 12:00:00,67.4,63.1,30.07,SSE,155,4.0,4.0,86,0.00,,,0.01,Wunderground v.1.15,2013-10-21 17:00:00,
2013-10-21 12:05:00,67.6,63.3,30.06,SE,129,4.0,9.0,86,0.00,,,0.01,Wunderground v.1.15,2013-10-21 17:05:00,
2013-10-21 12:10:00,67.9,63.6,30.06,SSE,152,3.0,9.0,86,0.00,,,0.01,Wunderground v.1.15,2013-10-21 17:10:00,
2013-10-21 12:15:00,68.0,63.3,30.05,SSE,155,3.0,9.0,85,0.00,,,0.01,Wunderground v.1.15,2013-10-21 17:15:00,
2013-10-21 12:20:00,68.2,63.2,30.05,East,80,2.0,9.0,84,0.00,,,0.01,Wunderground v.1.15,2013-10-21 17:20:00,
2013-10-21 12:25:00,68.2,63.2,30.04,ENE,77,2.0,9.0,84,0.00,,,0.01,Wunderground v.1.15,2013-10-21 17:25:00,
2013-10-21 12:35:00,68.6,63.6,30.04,SSE,153,2.0,9.0,84,0.00,,,0.01,Wunderground v.1.15,2013-10-21 17:35:00,
2013-10-21 12:40:00,68.8,63.8,30.04,SE,143,2.0,9.0,84,0.00,,,0.01,Wunderground v.1.15,2013-10-21 17:40:00,
2013-10-21 12:45:00,68.9,63.2,30.03,SE,129,2.0,9.0,82,0.00,,,0.01,Wunderground v.1.15,2013-10-21 17:45:00,
2013-10-21 12:50:00,69.0,64.0,30.03,ENE,60,2.0,9.0,84,0.00,,,0.01,Wunderground v.1.15,2013-10-21 17:50:00,
2013-10-21 12:55:00,68.9,63.2,30.02,East,98,3.0,9.0,82,0.00,,,0.01,Wunderground v.1.15,2013-10-21 17:55:00,
2013-10-21 13:05:00,69.1,63.7,30.01,East,101,3.0,9.0,83,0.00,,,0.01,Wunderground v.1.15,2013-10-21 18:05:00,
2013-10-21 13:10:00,69.3,63.6,30.01,ESE,120,2.0,9.0,82,0.00,,,0.01,Wunderground v.1.15,2013-10-21 18:10:00,
2013-10-21 13:15:00,69.4,63.7,30.01,ESE,105,3.0,9.0,82,0.00,,,0.01,Wunderground v.1.15,2013-10-21 18:15:00,
2013-10-21 13:20:00,69.4,63.7,30.01,East,99,4.0,4.0,82,0.00,,,0.01,Wunderground v.1.15,2013-10-21 18:20:00,
2013-10-21 13:25:00,69.4,64.0,30.01,East,98,4.0,9.0,83,0.00,,,0.01,Wunderground v.1.15,2013-10-21 18:25:00,
2013-10-21 13:30:00,69.1,63.7,30.00,ENE,70,4.0,9.0,83,0.00,,,0.01,Wunderground v.1.15,2013-10-21 18:30:00,
2013-10-21 13:40:00,69.0,64.0,30.00,ENE,72,2.0,9.0,84,0.00,,,0.01,Wunderground v.1.15,2013-10-21 18:40:00,
2013-10-21 13:45:00,69.1,64.1,30.00,ENE,74,2.0,9.0,84,0.00,,,0.01,Wunderground v.1.15,2013-10-21 18:45:00,
2013-10-21 13:50:00,68.9,63.9,29.99,East,86,2.0,9.0,84,0.00,,,0.01,Wunderground v.1.15,2013-10-21 18:50:00,
2013-10-21 13:55:00,68.8,63.8,29.99,ENE,65,3.0,9.0,84,0.00,,,0.01,Wunderground v.1.15,2013-10-21 18:55:00,
2013-10-21 14:00:00,68.9,64.5,30.00,ESE,116,2.0,2.0,86,0.00,,,0.01,Wunderground v.1.15,2013-10-21 19:00:00,
2013-10-21 14:10:00,69.1,64.7,29.99,SE,127,1.0,9.0,86,0.00,,,0.01,Wunderground v.1.15,2013-10-21 19:10:00,
2013-10-21 14:15:00,69.1,64.7,29.99,SE,129,2.0,9.0,86,0.00,,,0.01,Wunderground v.1.15,2013-10-21 19:15:00,
2013-10-21 14:20:00,69.0,64.6,29.99,ESE,116,3.0,3.0,86,0.00,,,0.01,Wunderground v.1.15,2013-10-21 19:20:00,
2013-10-21 14:25:00,69.0,64.3,29.99,ESE,105,3.0,9.0,85,0.00,,,0.01,Wunderground v.1.15,2013-10-21 19:25:00,
2013-10-21 14:30:00,69.2,64.8,29.99,ESE,121,3.0,9.0,86,0.00,,,0.01,Wunderground v.1.15,2013-10-21 19:30:00,
2013-10-21 14:35:00,69.4,64.7,29.99,ESE,106,3.0,9.0,85,0.00,,,0.01,Wunderground v.1.15,2013-10-21 19:35:00,
2013-10-21 14:45:00,70.1,65.0,29.99,ESE,102,2.0,9.0,84,0.00,,,0.01,Wunderground v.1.15,2013-10-21 19:45:00,
2013-10-21 14:50:00,70.2,64.8,29.99,East,90,3.0,9.0,83,0.00,,,0.01,Wunderground v.1.15,2013-10-21 19:50:00,
2013-10-21 14:55:00,70.5,65.1,29.99,East,93,4.0,9.0,83,0.00,,,0.01,Wunderground v.1.15,2013-10-21 19:55:00,
2013-10-21 15:00:00,70.7,65.3,29.99,ENE,66,4.0,4.0,83,0.00,,,0.01,Wunderground v.1.15,2013-10-21 20:00:00,
2013-10-21 15:05:00,70.8,65.4,29.99,ESE,110,4.0,9.0,83,0.00,,,0.01,Wunderground v.1.15,2013-10-21 20:05:00,
2013-10-21 15:10:00,71.2,66.1,29.98,ESE,122,3.0,3.0,84,0.00,,,0.01,Wunderground v.1.15,2013-10-21 20:10:00,
2013-10-21 15:15:00,71.1,66.0,29.98,SE,141,3.0,9.0,84,0.00,,,0.01,Wunderground v.1.15,2013-10-21 20:15:00,
2013-10-21 15:20:00,71.3,66.2,29.98,ESE,108,3.0,9.0,84,0.00,,,0.01,Wunderground v.1.15,2013-10-21 20:20:00,
2013-10-21 15:30:00,71.5,66.4,29.98,SE,143,4.0,4.0,84,0.00,,,0.01,Wunderground v.1.15,2013-10-21 20:30:00,
2013-10-21 15:35:00,71.5,66.4,29.98,ESE,108,4.0,9.0,84,0.00,,,0.01,Wunderground v.1.15,2013-10-21 20:35:00,
2013-10-21 15:40:00,71.3,66.2,29.98,ESE,122,4.0,4.0,84,0.00,,,0.01,Wunderground v.1.15,2013-10-21 20:40:00,
2013-10-21 15:45:00,71.2,65.8,29.98,East,95,4.0,9.0,83,0.00,,,0.01,Wunderground v.1.15,2013-10-21 20:45:00,
2013-10-21 15:50:00,71.3,66.2,29.97,ESE,120,3.0,9.0,84,0.00,,,0.01,Wunderground v.1.15,2013-10-21 20:50:00,
2013-10-21 15:55:00,71.2,66.1,29.97,SE,126,4.0,9.0,84,0.00,,,0.01,Wunderground v.1.15,2013-10-21 20:55:00,
2013-10-21 16:00:00,71.1,66.4,29.96,SSE,148,4.0,4.0,85,0.00,,,0.01,Wunderground v.1.15,2013-10-21 21:00:00,
2013-10-21 16:05:00,71.0,65.9,29.96,East,90,5.0,5.0,84,0.00,,,0.01,Wunderground v.1.15,2013-10-21 21:05:00,
2013-10-21 16:10:00,70.8,66.1,29.95,East,97,5.0,9.0,85,0.00,,,0.01,Wunderground v.1.15,2013-10-21 21:10:00,
2013-10-21 16:20:00,70.7,66.0,29.95,SSE,154,4.0,4.0,85,0.00,,,0.01,Wunderground v.1.15,2013-10-21 21:20:00,
2013-10-21 16:25:00,70.6,66.2,29.95,ESE,113,3.0,9.0,86,0.00,,,0.01,Wunderground v.1.15,2013-10-21 21:25:00,
2013-10-21 16:30:00,70.5,66.1,29.94,East,95,3.0,9.0,86,0.00,,,0.01,Wunderground v.1.15,2013-10-21 21:30:00,
2013-10-21 16:35:00,70.3,65.6,29.94,East,93,4.0,9.0,85,0.00,,,0.01,Wunderground v.1.15,2013-10-21 21:35:00,
2013-10-21 16:40:00,70.3,65.6,29.93,East,95,4.0,9.0,85,0.00,,,0.01,Wunderground v.1.15,2013-10-21 21:40:00,
2013-10-21 16:50:00,70.1,65.7,29.93,ESE,121,4.0,4.0,86,0.00,,,0.01,Wunderground v.1.15,2013-10-21 21:50:00,
2013-10-21 16:55:00,70.1,66.0,29.93,ENE,61,3.0,9.0,87,0.00,,,0.01,Wunderground v.1.15,2013-10-21 21:55:00,
2013-10-21 17:00:00,70.1,66.0,29.93,NNE,13,3.0,9.0,87,0.00,,,0.01,Wunderground v.1.15,2013-10-21 22:00:00,
2013-10-21 17:05:00,70.2,66.1,29.94,NW,316,3.0,9.0,87,0.00,,,0.01,Wunderground v.1.15,2013-10-21 22:05:00,
2013-10-21 17:10:00,70.5,66.1,29.94,North,353,3.0,9.0,86,0.00,,,0.01,Wunderground v.1.15,2013-10-21 22:10:00,
2013-10-21 17:15:00,70.7,66.3,29.94,NNW,340,4.0,9.0,86,0.00,,,0.01,Wunderground v.1.15,2013-10-21 22:15:00,
2013-10-21 17:25:00,70.6,66.2,29.95,NE,48,3.0,9.0,86,0.00,,,0.01,Wunderground v.1.15,2013-10-21 22:25:00,
2013-10-21 17:30:00,70.6,66.2,29.95,NNE,18,3.0,9.0,86,0.00,,,0.01,Wunderground v.1.15,2013-10-21 22:30:00,
2013-10-21 17:35:00,70.5,65.8,29.95,North,356,3.0,9.0,85,0.00,,,0.01,Wunderground v.1.15,2013-10-21 22:35:00,
2013-10-21 17:40:00,70.4,66.0,29.95,NE,46,3.0,3.0,86,0.00,,,0.01,Wunderground v.1.15,2013-10-21 22:40:00,
2013-10-21 17:45:00,70.3,66.2,29.95,NE,43,3.0,9.0,87,0.00,,,0.01,Wunderground v.1.15,2013-10-21 22:45:00,
2013-10-21 17:55:00,69.9,65.9,29.95,NE,53,2.0,9.0,87,0.00,,,0.01,Wunderground v.1.15,2013-10-21 22:55:00,
2013-10-21 18:00:00,69.8,65.8,29.95,NE,38,2.0,9.0,87,0.00,,,0.01,Wunderground v.1.15,2013-10-21 23:00:00,
2013-10-21 18:05:00,69.7,65.7,29.95,East,95,2.0,9.0,87,0.00,,,0.01,Wunderground v.1.15,2013-10-21 23:05:00,
2013-10-21 18:10:00,69.5,65.8,29.95,ENE,76,2.0,2.0,88,0.00,,,0.01,Wunderground v.1.15,2013-10-21 23:10:00,
2013-10-21 18:15:00,69.4,65.7,29.95,East,101,1.0,9.0,88,0.00,,,0.01,Wunderground v.1.15,2013-10-21 23:15:00,
2013-10-21 18:20:00,69.2,65.8,29.95,NE,52,1.0,9.0,89,0.00,,,0.01,Wunderground v.1.15,2013-10-21 23:20:00,
2013-10-21 18:30:00,68.9,65.5,29.95,North,1,1.0,9.0,89,0.00,,,0.01,Wunderground v.1.15,2013-10-21 23:30:00,
2013-10-21 18:35:00,68.8,65.4,29.95,North,5,1.0,9.0,89,0.00,,,0.01,Wunderground v.1.15,2013-10-21 23:35:00,
2013-10-21 18:40:00,68.6,65.2,29.95,North,4,1.0,9.0,89,0.00,,,0.01,Wunderground v.1.15,2013-10-21 23:40:00,
2013-10-21 18:45:00,68.5,65.4,29.96,North,8,1.0,9.0,90,0.00,,,0.01,Wunderground v.1.15,2013-10-21 23:45:00,
2013-10-21 18:50:00,68.5,65.4,29.96,NE,53,1.0,9.0,90,0.00,,,0.01,Wunderground v.1.15,2013-10-21 23:50:00,
2013-10-21 19:00:00,68.4,65.4,29.96,ENE,71,1.0,1.0,90,0.00,,,0.01,Wunderground v.1.15,2013-10-22 00:00:00,
2013-10-21 19:05:00,68.2,65.2,29.96,NE,47,0.0,9.0,90,0.00,,,0.01,Wunderground v.1.15,2013-10-22 00:05:00,
2013-10-21 19:10:00,68.1,65.1,29.96,NE,47,0.0,9.0,90,0.00,,,0.01,Wunderground v.1.15,2013-10-22 00:10:00,
2013-10-21 19:15:00,68.0,65.3,29.96,ENE,58,0.0,9.0,91,0.00,,,0.01,Wunderground v.1.15,2013-10-22 00:15:00,
2013-10-21 19:20:00,67.9,65.2,29.96,ENE,65,0.0,9.0,91,0.00,,,0.01,Wunderground v.1.15,2013-10-22 00:20:00,
2013-10-21 19:25:00,67.8,65.1,29.96,East,92,0.0,9.0,91,0.00,,,0.01,Wunderground v.1.15,2013-10-22 00:25:00,
2013-10-21 19:35:00,67.1,64.7,29.96,East,98,0.0,9.0,92,0.00,,,0.01,Wunderground v.1.15,2013-10-22 00:35:00,
2013-10-21 19:40:00,66.5,64.4,29.96,East,98,0.0,9.0,93,0.00,,,0.01,Wunderground v.1.15,2013-10-22 00:40:00,
2013-10-21 19:45:00,66.0,63.9,29.96,East,98,0.0,9.0,93,0.00,,,0.01,Wunderground v.1.15,2013-10-22 00:45:00,
2013-10-21 19:50:00,65.8,64.0,29.97,East,98,0.0,9.0,94,0.00,,,0.01,Wunderground v.1.15,2013-10-22 00:50:00,
2013-10-21 19:55:00,65.7,64.2,29.97,East,98,0.0,9.0,95,0.00,,,0.01,Wunderground v.1.15,2013-10-22 00:55:00,
2013-10-21 20:05:00,65.5,64.3,29.97,East,98,0.0,9.0,96,0.00,,,0.01,Wunderground v.1.15,2013-10-22 01:05:00,
2013-10-21 20:10:00,65.5,64.3,29.97,East,98,0.0,9.0,96,0.00,,,0.01,Wunderground v.1.15,2013-10-22 01:10:00,
2013-10-21 20:15:00,65.6,64.7,29.97,East,98,0.0,9.0,97,0.00,,,0.01,Wunderground v.1.15,2013-10-22 01:15:00,
2013-10-21 20:20:00,65.4,64.2,29.98,East,98,0.0,9.0,96,0.00,,,0.01,Wunderground v.1.15,2013-10-22 01:20:00,
2013-10-21 20:25:00,65.0,63.8,29.98,East,98,0.0,9.0,96,0.00,,,0.01,Wunderground v.1.15,2013-10-22 01:25:00,
2013-10-21 20:30:00,64.8,63.9,29.98,East,98,0.0,9.0,97,0.00,,,0.01,Wunderground v.1.15,2013-10-22 01:30:00,
2013-10-21 20:35:00,64.7,63.8,29.99,East,98,0.0,9.0,97,0.00,,,0.01,Wunderground v.1.15,2013-10-22 01:35:00,
2013-10-21 20:40:00,64.5,63.6,29.99,East,98,0.0,9.0,97,0.00,,,0.01,Wunderground v.1.15,2013-10-22 01:40:00,
2013-10-21 20:45:00,64.4,63.5,29.99,East,98,0.0,9.0,97,0.00,,,0.01,Wunderground v.1.15,2013-10-22 01:45:00,
2013-10-21 20:50:00,64.3,63.4,29.99,East,98,0.0,9.0,97,0.00,,,0.01,Wunderground v.1.15,2013-10-22 01:50:00,
2013-10-21 20:55:00,63.9,63.0,29.99,East,98,0.0,9.0,97,0.00,,,0.01,Wunderground v.1.15,2013-10-22 01:55:00,
2013-10-21 21:00:00,63.8,62.9,29.99,East,98,0.0,9.0,97,0.00,,,0.01,Wunderground v.1.15,2013-10-22 02:00:00,
2013-10-21 21:10:00,63.9,63.3,29.99,East,97,0.0,9.0,98,0.00,,,0.01,Wunderground v.1.15,2013-10-22 02:10:00,
2013-10-21 21:15:00,63.8,63.2,29.99,East,97,0.0,9.0,98,0.00,,,0.01,Wunderground v.1.15,2013-10-22 02:15:00,
2013-10-21 21:20:00,63.8,63.2,29.98,East,97,0.0,9.0,98,0.00,,,0.01,Wunderground v.1.15,2013-10-22 02:20:00,
2013-10-21 21:25:00,63.5,62.6,29.99,North,4,0.0,9.0,97,0.00,,,0.01,Wunderground v.1.15,2013-10-22 02:25:00,
2013-10-21 21:30:00,63.5,62.9,29.99,North,356,1.0,9.0,98,0.00,,,0.01,Wunderground v.1.15,2013-10-22 02:30:00,
2013-10-21 21:40:00,63.5,62.9,29.99,North,359,1.0,1.0,98,0.00,,,0.01,Wunderground v.1.15,2013-10-22 02:40:00,
2013-10-21 21:45:00,63.7,63.1,29.99,North,359,0.0,9.0,98,0.00,,,0.01,Wunderground v.1.15,2013-10-22 02:45:00,
2013-10-21 21:50:00,63.7,63.1,30.00,North,359,0.0,9.0,98,0.00,,,0.01,Wunderground v.1.15,2013-10-22 02:50:00,
2013-10-21 21:55:00,63.6,63.0,30.00,North,359,0.0,9.0,98,0.00,,,0.01,Wunderground v.1.15,2013-10-22 02:55:00,
2013-10-21 22:00:00,63.5,62.9,30.00,North,359,0.0,9.0,98,0.00,,,0.01,Wunderground v.1.15,2013-10-22 03:00:00,
2013-10-21 22:05:00,63.5,62.9,29.99,North,359,0.0,9.0,98,0.00,,,0.01,Wunderground v.1.15,2013-10-22 03:05:00,
2013-10-21 22:15:00,63.5,62.9,29.99,North,359,0.0,9.0,98,0.00,,,0.01,Wunderground v.1.15,2013-10-22 03:15:00,
2013-10-21 22:20:00,63.5,62.9,29.99,North,359,0.0,9.0,98,0.00,,,0.01,Wunderground v.1.15,2013-10-22 03:20:00,
2013-10-21 22:25:00,63.3,62.7,29.99,East,97,0.0,9.0,98,0.00,,,0.01,Wunderground v.1.15,2013-10-22 03:25:00,
2013-10-21 22:30:00,63.0,62.4,29.99,East,97,0.0,9.0,98,0.00,,,0.01,Wunderground v.1.15,2013-10-22 03:30:00,
2013-10-21 22:35:00,62.8,62.2,29.99,East,97,0.0,9.0,98,0.00,,,0.01,Wunderground v.1.15,2013-10-22 03:35:00,
2013-10-21 22:45:00,63.2,62.9,29.99,East,97,0.0,9.0,99,0.00,,,0.01,Wunderground v.1.15,2013-10-22 03:45:00,
2013-10-21 22:50:00,63.3,62.7,29.99,East,101,0.0,9.0,98,0.00,,,0.01,Wunderground v.1.15,2013-10-22 03:50:00,
2013-10-21 22:55:00,63.1,62.5,29.99,East,101,1.0,9.0,98,0.00,,,0.01,Wunderground v.1.15,2013-10-22 03:55:00,
2013-10-21 23:00:00,63.0,62.4,29.99,East,101,0.0,9.0,98,0.00,,,0.01,Wunderground v.1.15,2013-10-22 04:00:00,
2013-10-21 23:05:00,63.1,62.8,29.99,North,10,0.0,9.0,99,0.00,,,0.01,Wunderground v.1.15,2013-10-22 04:05:00,
2013-10-21 23:10:00,63.4,63.1,29.99,North,10,0.0,9.0,99,0.00,,,0.01,Wunderground v.1.15,2013-10-22 04:10:00,
2013-10-21 23:15:00,63.5,63.2,30.00,North,10,0.0,9.0,99,0.00,,,0.01,Wunderground v.1.15,2013-10-22 04:15:00,
2013-10-21 23:20:00,63.7,63.4,29.99,NNE,14,0.0,9.0,99,0.00,,,0.01,Wunderground v.1.15,2013-10-22 04:20:00,
2013-10-21 23:25:00,63.9,63.6,29.99,NNE,14,0.0,9.0,99,0.00,,,0.01,Wunderground v.1.15,2013-10-22 04:25:00,
2013-10-21 23:30:00,63.9,63.6,29.99,NNE,14,0.0,9.0,99,0.00,,,0.01,Wunderground v.1.15,2013-10-22 04:30:00,
2013-10-21 23:35:00,63.7,63.1,29.99,NNE,14,0.0,9.0,98,0.00,,,0.01,Wunderground v.1.15,2013-10-22 04:35:00,
2013-10-21 23:40:00,63.6,63.0,29.99,NNE,14,0.0,9.0,98,0.00,,,0.01,Wunderground v.1.15,2013-10-22 04:40:00,
2013-10-21 23:45:00,63.6,63.0,29.99,NNE,13,0.0,9.0,98,0.00,,,0.01,Wunderground v.1.15,2013-10-22 04:45:00,
2013-10-21 23:50:00,63.7,63.1,29.99,NNE,13,0.0,9.0,98,0.00,,,0.01,Wunderground v.1.15,2013-10-22 04:50:00,
2013-10-21 23:55:00,63.7,63.1,29.99,NE,34,0.0,9.0,98,0.00,,,0.01,Wunderground v.1.15,2013-10-22 04:55:00,